{"data":{"norad_id":47293,"intl_designator":"2020-100AM","name":"ONEWEB-0147","alt_names":[],"object_type":"PAYLOAD","status":"ACTIVE","operator":null,"country":"UK","launch_date":"2020-12-18","launch_site_code":"VOSTO","launch_vehicle":null,"mission":null,"orbit_class":"UNKNOWN","rcs_meters":null,"size_class":null,"mass_kg":null,"dimensions":null,"purposes":["comms"],"wikipedia_slug":null,"has_3d_model":false,"image_url":null,"decayed_at":null,"tle_current":{"epoch":"2026-05-25T02:58:24.693888Z","epoch_age_seconds":57496,"freshness":"FRESH","line1":"1 47293U 20100AM  26145.12389692  .00000194  00000+0  50493-3 0  9993","line2":"2 47293  87.8960 355.2288 0001680  81.7720 278.3599 13.12441366261540","mean_motion":13.12441366,"eccentricity":0.000168,"inclination_deg":87.896,"raan_deg":355.2288,"arg_perigee_deg":81.772,"mean_anomaly_deg":278.3599,"bstar":0.00050493,"rev_number":26154,"period_min":109.71918725701,"perigee_km":1212.4541587435,"apogee_km":1215.0050259185,"semimajor_km":7591.866592331,"source":"CELESTRAK","updated_at":"2026-05-25T13:38:22.386970Z"}}}